Simultaneous Nadir Overpasses (SNOs) Predictions

Prediction of SNOs between METOP-B and NOAA-19 Satellite Orbit:

Table of predicted SNOs for the next 14.0 days since TLE Epoch: 9/24/2016
Index Date (METOP-B) Time (METOP-B) Lat,Lon (METOP-B) SZA (METOP-B ) Date (NOAA-19) Time (NOAA-19) Lat,Lon (NOAA-19) SZA (NOAA-19 ) Distance(km) Time Diff (sec)
1 09/30/2016 05:15:12 -76.42, -76.82 100.65 09/30/2016 05:14:04 -76.39, -76.89 100.68 3.10 68
2 09/30/2016 06:05:53 76.37, 90.35 79.32 09/30/2016 06:05:03 76.38, 90.42 79.32 2.04 50
3 09/30/2016 06:56:35 -76.35,-102.39 100.69 09/30/2016 06:56:05 -76.35,-102.25 100.69 3.76 30
4 09/30/2016 07:47:15 76.35, 64.95 79.33 09/30/2016 07:47:05 76.38, 64.90 79.35 3.21 10
5 09/30/2016 08:37:57 -76.34,-127.79 100.68 09/30/2016 08:38:07 -76.36,-127.77 100.66 2.40 10
6
